Galveston, TX

9:55 AM CST on February 20, 2018 (GMT -0600)
Scholes International At Galveston

Weather History for KGLS - December, 2012

Change the Weather History Date:

Monday, December 31, 2012

  Actual Average Record
Temperature  
Mean Temperature 61 °F 55 °F  
Max Temperature 66 °F 62 °F 74 °F (1921)
Min Temperature 55 °F 49 °F 25 °F (1880)
Degree Days  
Heating Degree Days 4 10  
Month to date heating degree days 174 258  
Since 1 July heating degree days 257 360  
Cooling Degree Days 0 0  
Month to date cooling degree days 75 19  
Year to date cooling degree days 3939 3308  
Growing Degree Days 10 (Base 50)    
Moisture  
Dew Point 61 °F    
Average Humidity 93    
Maximum Humidity 100    
Minimum Humidity 86    
Precipitation  
Precipitation T in 0.08 in 1.76 in (1949)
Month to date precipitation 2.87 3.52  
Year to date precipitation 47.21 50.76  
Snow  
Snow 0.00 in - - ()
Month to date snowfall 0.0  
Since 1 July snowfall 0.0  
Snow Depth 0.00 in    
Sea Level Pressure  
Sea Level Pressure 30.07 in    
Wind  
Wind Speed 13 mph (ESE)    
Max Wind Speed 18 mph    
Max Gust Speed 23 mph    
Visibility 8 miles    
Events Rain    
T = Trace of Precipitation, MM = Missing Value Source: NWS Daily Summary

Daily Weather History Graph

Daily Weather History Graph

Search for Another Location

Airport or City:

Trip Planner

Search our weather history database for the weather conditions in past years. The results will help you decide how hot, cold, wet, or windy it might be!

Date:

Astronomy

Dec. 31, 2012 Rise Set
Actual Time 7:13 AM CST 5:32 PM CST
Civil Twilight 6:47 AM CST 5:58 PM CST
Nautical Twilight 6:17 AM CST 6:27 PM CST
Astronomical Twilight 5:48 AM CST 6:56 PM CST
Moon 8:46 PM CST (12/31) 9:10 AM CST (12/31)
Length of Visible Light 11h 10m
Length of Day
10h 18m
Waning Gibbous, 90% of the Moon is Illuminated
Dec 31
Waning Gibbous
Jan 4
Last Quarter
Jan 11
New
Jan 18
First Quarter
Jan 26
Full

Hourly Weather History & Observations

Time (CST) Temp. Dew Point Humidity Pressure Visibility Wind Dir Wind Speed Gust Speed Precip Events Conditions
12:52 AM 55.9 °F 54.0 °F 93% 30.22 in 10.0 mi East 16.1 mph - N/A   Overcast
1:52 AM 57.0 °F 55.9 °F 96% 30.20 in 10.0 mi East 13.8 mph - N/A   Overcast
2:52 AM 57.9 °F 55.9 °F 93% 30.17 in 10.0 mi East 16.1 mph - N/A   Overcast
3:20 AM 57.2 °F 57.2 °F 100% 30.17 in 10.0 mi East 15.0 mph - N/A   Overcast
3:31 AM 57.2 °F 57.2 °F 100% 30.17 in 10.0 mi East 15.0 mph 21.9 mph N/A   Overcast
3:52 AM 57.9 °F 57.0 °F 97% 30.17 in 10.0 mi East 15.0 mph - N/A   Overcast
4:52 AM 59.0 °F 57.9 °F 96% 30.16 in 10.0 mi East 11.5 mph 19.6 mph N/A   Overcast
5:16 AM 59.0 °F 57.2 °F 94% 30.13 in 10.0 mi East 12.7 mph - N/A   Overcast
5:38 AM 59.0 °F 57.2 °F 94% 30.13 in 9.0 mi East 15.0 mph - N/A   Overcast
5:52 AM 59.0 °F 57.9 °F 96% 30.12 in 9.0 mi East 13.8 mph - N/A   Overcast
6:52 AM 59.0 °F 59.0 °F 100% 30.12 in 9.0 mi East 12.7 mph - N/A   Overcast
7:15 AM 60.8 °F 59.0 °F 94% 30.12 in 8.0 mi East 11.5 mph - N/A   Overcast
7:52 AM 60.8 °F 60.8 °F 100% 30.12 in 7.0 mi East 13.8 mph - N/A   Overcast
8:00 AM 60.8 °F 60.8 °F 100% 30.13 in 7.0 mi East 12.7 mph - N/A   Overcast
8:40 AM 60.8 °F 60.8 °F 100% 30.12 in 8.0 mi East 11.5 mph - N/A   Overcast
8:52 AM 60.1 °F 60.1 °F 100% 30.12 in 8.0 mi East 12.7 mph - N/A   Overcast
9:52 AM 61.0 °F 60.1 °F 97% 30.12 in 8.0 mi East 11.5 mph - N/A   Overcast
10:52 AM 63.0 °F 61.0 °F 93% 30.10 in 9.0 mi ESE 13.8 mph - N/A   Overcast
11:52 AM 64.0 °F 62.1 °F 93% 30.07 in 10.0 mi SE 12.7 mph - N/A   Overcast
12:03 PM 64.4 °F 62.6 °F 94% 30.07 in 10.0 mi SE 12.7 mph - N/A   Overcast
12:11 PM 64.4 °F 62.6 °F 94% 30.06 in 10.0 mi SE 12.7 mph - N/A   Overcast
12:37 PM 66.2 °F 62.6 °F 88% 30.04 in 8.0 mi SSE 15.0 mph - N/A   Overcast
12:52 PM 66.0 °F 64.0 °F 93% 30.04 in 10.0 mi SSE 12.7 mph - N/A   Overcast
1:52 PM 64.9 °F 63.0 °F 93% 30.02 in 9.0 mi SSE 12.7 mph - N/A   Overcast
2:14 PM 64.4 °F 62.6 °F 94% 30.02 in 5.0 mi South 11.5 mph - 0.00 in Rain Light Rain
2:48 PM 64.4 °F 64.4 °F 100% 30.01 in 6.0 mi SSE 11.5 mph - 0.00 in   Overcast
2:52 PM 63.0 °F 63.0 °F 100% 30.01 in 5.0 mi SSE 10.4 mph - 0.00 in   Overcast
3:52 PM 64.0 °F 64.0 °F 100% 30.00 in 7.0 mi SSE 10.4 mph - N/A   Overcast
4:52 PM 63.0 °F 63.0 °F 100% 29.99 in 6.0 mi SE 10.4 mph - 0.00 in   Overcast
5:00 PM 62.6 °F 62.6 °F 100% 29.98 in 6.0 mi SE 11.5 mph - N/A   Overcast
5:29 PM 64.4 °F 64.4 °F 100% 29.98 in 6.0 mi SE 9.2 mph - N/A   Overcast
5:49 PM 64.4 °F 64.4 °F 100% 29.98 in 4.0 mi SE 9.2 mph - 0.00 in Rain Light Rain
5:52 PM 64.0 °F 64.0 °F 100% 29.98 in 4.0 mi SE 8.1 mph - 0.00 in Rain Light Rain
6:14 PM 64.4 °F 64.4 °F 100% 29.97 in 5.0 mi SE 9.2 mph - N/A   Overcast
6:52 PM 64.0 °F 64.0 °F 100% 29.97 in 7.0 mi SE 10.4 mph - 0.00 in   Overcast
7:52 PM 64.0 °F 64.0 °F 100% 29.98 in 8.0 mi SSE 11.5 mph - N/A   Overcast
8:52 PM 64.0 °F 64.0 °F 100% 29.98 in 8.0 mi SSE 11.5 mph - N/A   Overcast
9:52 PM 63.0 °F 63.0 °F 100% 29.97 in 7.0 mi SSE 11.5 mph - N/A   Overcast
10:52 PM 64.0 °F 64.0 °F 100% 29.96 in 6.0 mi South 12.7 mph - N/A   Overcast
11:52 PM 64.0 °F 64.0 °F 100% 29.95 in 6.0 mi South 16.1 mph - N/A   Overcast